Theta_e
307 307 306 307 306 306 306 307 307 307 306 307 307 308 310 311 311 310 311 313 306 302 304 306 306 305 308 306 305 309 308 312 312 309 308 308 307 308 309 312 312 311 309 307 308 306 303 320 319 313 323 324 324 323
306 306 306 306 306 306 307 306 306 307 307 307 307 307 309 310 311 309 309 313 312 305 305 309 308 308 307 310 307 308 310 313 313 311 313 313 310 312 312 306 318 310 316 313 314 310 325 324 323 325 325 324 323 324
306 306 306 306 306 306 307 307 307 307 307 307 307 307 308 310 311 309 308 311 309 306 306 305 307 311 314 310 310 304 309 314 314 315 312 313 311 315 309 310 312 316 318 314 316 319 320 319 323 324 325 324 325 326
306 306 306 306 306 306 306 306 307 307 307 307 307 307 308 310 311 310 308 311 309 306 300 304 309 307 310 310 310 310 311 312 314 314 312 312 309 315 311 313 313 315 317 314 315 319 319 321 321 321 323 325 325 327
305 305 305 306 306 306 306 306 307 307 307 307 307 307 308 309 310 310 310 312 312 305 302 303 307 309 309 311 309 310 309 309 308 307 309 308 313 312 313 313 311 316 314 311 312 317 317 319 319 321 321 323 325 326
305 305 305 305 305 306 306 306 307 307 307 307 307 307 308 309 310 308 303 311 314 311 304 301 308 307 310 310 308 309 311 309 308 307 306 310 311 310 305 306 312 315 317 317 315 315 315 317 318 318 318 319 323 325
306 306 305 305 305 306 306 306 307 307 307 307 306 307 308 309 309 303 302 306 308 310 304 300 301 307 309 310 309 308 308 307 306 307 304 305 307 307 303 300 309 312 313 314 317 315 312 314 313 316 317 318 320 323
306 306 306 306 306 306 306 306 307 307 307 307 306 307 308 309 308 304 309 308 307 306 305 300 300 302 308 306 306 312 306 306 305 305 308 304 306 305 300 304 307 309 310 309 310 311 312 313 314 315 316 316 316 318
306 306 306 306 306 305 305 305 306 307 307 307 306 307 309 306 304 306 308 307 310 306 301 301 297 298 306 307 308 307 309 302 308 302 302 304 302 300 304 306 307 309 308 309 312 313 313 312 313 315 316 315 313 314
306 306 305 305 305 305 305 305 305 306 307 307 306 303 300 304 309 308 307 304 304 304 303 298 304 299 302 304 302 304 304 303 301 304 310 303 301 307 308 310 312 312 312 314 311 312 314 314 314 315 315 316 317 316
306 306 306 305 305 306 306 305 306 307 306 304 302 301 309 306 306 301 297 297 300 297 301 301 302 300 305 300 302 305 302 305 297 302 303 301 301 307 312 313 315 316 316 316 316 315 315 313 313 314 315 317 317 318
305 304 305 306 305 306 305 306 306 305 306 305 308 310 309 305 299 293 295 298 296 296 300 299 301 303 305 308 302 305 300 303 294 306 302 298 308 314 314 314 314 315 314 312 313 312 313 313 313 313 316 319 319 319
305 305 305 306 305 306 306 307 306 307 306 311 305 300 300 299 288 288 287 293 295 299 302 303 300 304 304 305 305 303 296 297 305 299 298 301 313 313 312 313 313 314 314 313 313 313 313 314 314 314 317 320 321 321
305 305 305 306 306 306 306 306 306 307 306 300 293 288 292 289 292 294 296 298 301 304 303 301 302 302 303 301 305 295 302 302 295 293 296 305 306 308 308 311 312 311 311 312 312 313 313 314 315 317 319 321 323 322
305 305 305 305 306 306 306 306 306 309 303 294 294 289 292 297 298 301 301 301 302 305 301 299 301 302 300 299 302 299 295 293 296 298 303 305 308 309 309 310 310 312 312 313 314 314 315 316 318 321 323 323 322 322
305 304 305 306 306 307 306 305 308 308 305 299 295 293 297 295 296 298 300 298 304 302 303 302 298 297 295 297 293 293 294 294 298 301 305 306 306 305 309 309 312 313 314 315 316 318 319 317 318 319 321 322 321 322
305 302 305 306 306 305 305 305 304 298 298 293 295 299 299 299 298 299 300 300 307 305 300 302 294 294 301 293 292 299 297 300 301 302 305 305 304 307 311 311 311 311 312 318 318 317 319 321 321 321 319 320 321 321
303 305 306 305 305 305 305 306 302 298 292 297 296 297 303 302 301 303 301 302 301 302 305 300 304 295 294 291 294 302 304 302 303 304 308 312 312 310 310 309 310 312 311 312 313 316 318 318 317 318 319 320 319 319
305 306 306 306 306 305 301 301 302 293 296 299 298 301 302 300 303 304 302 304 306 310 307 305 298 296 298 302 302 303 304 303 303 307 310 312 315 313 311 312 312 313 314 315 314 314 314 316 315 315 316 317 313 315
306 306 306 305 306 302 296 298 304 298 297 299 301 301 299 300 301 303 301 303 301 301 299 298 300 301 302 304 304 306 307 309 310 307 305 308 310 314 313 313 312 315 315 315 315 305 311 312 312 313 313 312 312 313
306 305 305 306 306 305 301 300 299 300 301 298 304 303 302 302 299 299 299 302 300 301 299 301 301 305 308 309 310 311 314 316 314 312 308 308 310 310 311 311 313 311 310 308 308 309 305 309 312 313 311 312 314 313
306 306 305 306 302 300 299 304 301 302 299 297 297 300 300 299 300 302 306 301 299 300 303 304 306 307 309 311 314 317 318 317 318 314 306 307 306 309 310 311 311 309 309 309 309 310 310 312 312 312 312 313 309 312
305 304 300 299 293 290 291 299 293 295 290 292 296 294 294 296 300 303 298 297 299 304 304 307 310 313 312 314 317 318 318 317 314 312 313 312 313 313 312 311 312 310 309 310 312 310 311 302 309 311 311 311 311 310
305 299 293 291 290 288 293 292 294 294 295 292 291 286 288 292 296 292 291 297 305 312 313 314 316 316 317 317 317 316 315 316 313 316 313 311 308 310 312 312 312 312 310 309 309 310 311 311 304 310 311 310 310 310
293 293 293 290 295 293 291 293 292 292 291 294 296 299 301 300 296 297 296 301 310 311 313 312 313 313 308 309 313 313 316 312 309 309 311 313 311 311 310 311 312 313 315 310 308 308 309 309 310 310 309 309 309 309
292 301 297 303 304 302 302 297 297 299 301 299 300 306 308 301 298 296 301 306 309 309 309 310 309 306 308 309 308 310 311 313 312 309 310 311 310 309 308 308 308 309 315 314 311 310 309 309 308 308 308 307 300 306
297 301 311 313 309 309 305 306 307 303 300 299 302 300 300 295 294 300 306 309 308 310 312 312 311 310 309 309 310 311 312 312 313 312 314 314 313 312 311 309 308 310 313 312 311 311 310 309 309 308 308 309 309 308
308 309 301 304 304 306 303 303 302 301 302 305 304 299 296 297 299 307 309 312 313 313 313 313 315 314 313 313 314 313 313 314 314 314 313 313 313 313 315 313 314 300 312 313 312 312 311 310 309 309 308 308 309 310
304 307 307 303 304 303 303 302 302 304 307 305 302 301 303 306 309 309 312 313 314 312 311 311 312 312 312 312 313 313 312 311 309 306 304 304 305 306 308 308 308 309 309 309 302 301 310 309 309 308 307 307 308 308
305 309 305 304 302 301 304 307 307 309 309 309 309 308 308 309 312 314 312 313 312 310 311 311 312 311 309 309 309 309 311 311 308 305 303 302 301 303 304 304 304 305 306 306 305 306 300 303 305 308 307 309 307 307
308 307 305 304 302 305 307 309 309 309 309 307 308 306 306 308 312 314 314 314 313 312 311 310 310 310 309 309 307 306 305 307 306 305 303 302 303 303 304 303 303 304 304 304 304 304 305 304 304 304 304 304 305 305
308 305 304 300 303 308 311 310 308 308 308 307 306 308 307 307 305 309 314 314 312 310 306 308 308 308 309 309 308 307 298 306 305 304 303 301 302 302 303 302 303 303 302 302 302 301 302 302 303 303 302 302 303 305
307 307 308 307 305 304 309 308 306 306 309 306 305 306 307 306 304 309 315 315 312 310 310 310 309 308 307 306 306 305 301 306 301 293 293 293 290 294 299 302 302 302 301 301 300 300 299 300 300 301 300 299 299 300
Wind_Speed
18 17 16 16 16 13 13 13 12 12 10 11 13 14 16 15 14 11 6 4 6 6 8 6 7 9 7 4 8 9 7 8 6 10 12 11 13 12 21 15 8 8 15 15 15 18 19 5 12 14 7 4 9 7
17 17 16 15 15 14 14 11 11 13 11 10 12 12 14 14 13 11 6 5 6 7 6 9 9 8 7 8 8 6 5 5 8 6 4 7 7 6 8 12 8 15 6 6 7 6 10 12 10 8 7 6 6 9
18 18 17 15 15 14 13 13 14 13 11 10 11 11 12 13 12 8 7 6 8 8 8 6 3 5 1 4 7 7 5 7 4 6 7 5 6 9 6 11 5 12 3 5 6 10 9 5 8 10 9 9 10 10
15 15 15 15 14 14 13 12 12 11 9 10 10 9 10 11 12 9 8 5 7 6 7 7 6 1 5 4 6 8 7 6 7 6 6 5 6 3 10 8 8 5 1 5 10 5 0 11 10 10 8 7 8 9
16 15 14 13 14 14 14 13 12 10 9 10 9 8 8 10 11 9 8 3 3 7 8 5 3 4 5 1 3 6 6 6 6 4 5 5 4 4 8 7 8 7 6 6 4 8 7 9 9 9 10 9 10 9
17 16 15 14 13 13 11 11 13 12 10 9 7 7 7 9 9 8 5 4 3 5 6 4 6 4 2 3 4 5 5 5 5 3 4 3 3 5 7 7 9 5 9 11 7 6 7 8 6 8 10 11 11 13
17 16 14 14 14 14 13 13 12 12 11 8 7 5 6 8 8 6 6 3 6 7 5 5 5 6 2 4 6 6 5 4 5 4 4 6 2 4 7 10 8 4 3 4 8 7 10 7 8 11 11 11 10 11
16 15 14 15 16 15 12 13 10 10 9 9 6 5 7 8 11 8 3 7 5 6 4 5 2 5 4 5 5 1 5 5 5 5 2 5 4 5 5 3 5 7 7 7 10 8 9 9 10 12 12 13 12 12
15 16 15 12 13 11 10 10 9 8 8 9 5 4 5 6 4 6 6 4 6 6 6 3 5 4 3 2 3 4 3 6 4 5 7 5 6 7 5 6 6 4 5 6 8 9 10 11 12 12 11 12 14 15
12 12 13 13 12 12 12 7 7 9 9 7 5 4 4 2 8 6 5 5 8 6 5 6 3 1 5 2 4 1 3 5 5 8 2 4 9 13 12 9 4 4 6 9 11 10 9 11 11 13 14 13 13 13
9 9 11 11 11 12 10 9 9 11 9 5 5 3 5 2 4 3 3 5 5 4 5 5 4 3 2 5 2 2 3 2 4 5 4 4 4 1 10 7 7 6 6 9 11 12 13 14 14 15 16 16 15 14
8 9 10 13 13 10 12 11 15 12 2 2 2 1 2 2 4 4 5 3 5 3 5 5 5 6 5 3 4 3 3 2 5 4 3 4 11 9 7 5 5 7 9 12 13 14 16 16 17 18 16 15 15 10
8 12 11 12 10 11 9 14 18 1 5 2 3 5 2 2 3 5 7 4 5 5 4 5 6 6 5 5 2 3 4 5 3 3 3 4 10 14 12 9 11 14 15 16 18 17 18 19 19 19 15 13 13 8
8 11 8 12 13 11 12 15 9 5 2 2 2 2 3 3 6 7 4 3 7 2 6 7 3 2 1 4 2 3 1 2 4 5 4 10 14 14 14 16 17 18 19 23 21 19 20 18 18 17 12 12 7 9
10 11 10 13 13 12 16 13 7 4 1 0 3 4 7 4 4 1 6 4 5 2 3 3 4 2 3 3 2 4 3 4 5 6 11 13 17 17 18 17 18 19 16 18 19 18 17 19 10 9 6 5 5 7
14 10 6 14 16 17 17 10 5 3 1 2 3 6 4 4 3 6 5 3 5 7 4 3 3 2 1 4 0 5 4 1 6 8 11 13 15 14 15 12 10 10 12 15 13 13 13 8 4 2 3 6 7 8
6 3 12 19 19 18 13 6 4 4 2 3 5 7 3 3 2 2 6 3 0 3 4 3 5 5 2 1 4 4 5 6 8 9 7 8 8 11 8 8 8 8 8 14 10 5 2 2 1 2 3 2 2 3
13 12 19 19 15 8 3 3 2 3 4 6 4 4 1 3 2 1 6 2 2 2 1 2 2 3 2 3 3 5 5 5 5 7 9 8 5 6 4 4 4 3 6 10 9 4 4 6 5 4 5 3 6 6
11 12 13 12 3 4 4 6 3 4 5 4 5 2 1 2 3 4 4 5 3 2 1 1 2 2 3 4 6 6 5 5 6 8 8 9 8 10 7 6 4 6 7 4 4 6 5 4 1 1 4 3 4 4
14 13 10 4 5 2 3 3 4 4 3 3 1 2 3 2 3 4 4 4 4 2 3 3 3 2 3 2 4 7 8 7 5 6 5 5 4 9 0 4 6 6 5 6 3 4 5 5 8 8 8 3 4 6
8 6 5 4 3 4 3 2 4 1 3 1 3 2 2 2 4 6 5 4 4 3 5 3 4 7 8 5 6 7 7 7 5 7 5 7 4 5 4 5 4 7 7 8 9 2 3 6 2 2 1 4 5 5
2 10 2 1 3 4 4 1 3 3 3 3 4 2 1 4 4 3 4 1 3 6 6 6 6 6 7 9 6 6 7 7 9 6 8 6 5 4 6 8 6 4 7 4 6 10 6 3 8 9 7 5 4 6
3 1 1 2 3 2 3 1 2 2 3 3 2 2 1 0 2 4 2 1 4 4 7 9 10 10 11 10 10 7 5 6 6 3 2 6 3 3 6 6 7 5 8 7 6 8 7 3 4 4 7 7 6 5
3 3 5 3 4 3 3 4 3 3 3 1 3 3 4 4 2 1 4 4 5 4 4 6 6 5 4 6 2 3 3 2 2 3 4 7 5 6 9 6 6 4 5 6 6 6 6 7 2 8 7 8 7 7
3 3 5 7 8 7 7 7 6 6 7 8 5 4 6 7 5 2 2 2 4 1 5 6 6 3 5 4 6 3 4 3 4 5 4 3 7 8 7 6 7 4 1 5 6 7 7 6 7 7 8 8 10 10
3 4 3 7 6 4 4 5 1 3 5 5 4 4 3 5 5 6 2 4 1 3 4 3 4 2 3 3 3 5 6 6 6 8 9 8 8 8 9 9 9 9 5 4 6 9 9 9 9 10 11 11 9 11
4 5 1 2 3 2 2 4 5 3 6 4 2 3 4 5 5 5 7 5 6 5 4 5 5 7 8 7 6 5 5 4 4 6 8 7 4 5 5 7 10 8 10 13 12 13 13 12 12 12 11 10 10 11
4 6 10 12 11 10 13 9 12 13 8 5 6 8 8 7 10 7 5 5 3 5 4 4 2 3 4 3 4 5 6 6 5 8 10 11 11 10 9 9 10 3 9 11 11 10 11 13 14 15 14 13 12 12
8 10 11 12 11 11 12 15 14 12 11 11 13 13 12 9 5 4 2 3 5 6 7 7 5 6 6 7 7 9 10 9 11 13 13 11 11 10 12 12 12 12 13 15 12 11 14 12 12 11 13 12 14 14
11 9 12 14 15 14 10 8 10 10 8 9 8 8 9 8 5 3 6 9 8 6 8 8 8 8 8 9 10 12 8 8 9 10 11 12 12 12 12 12 13 13 12 13 14 16 15 11 11 12 12 11 11 12
5 8 11 9 8 6 6 6 6 6 6 6 6 7 9 7 8 8 6 3 4 7 9 9 9 9 10 11 10 11 10 10 12 12 10 10 10 12 12 13 14 12 12 14 14 15 15 14 13 15 17 18 17 13
5 4 5 4 3 5 3 3 4 4 4 3 4 7 6 4 6 5 6 8 9 9 8 10 10 11 11 11 10 10 8 10 11 11 14 11 10 12 12 12 13 12 13 14 15 15 17 19 14 16 16 19 22 22
4 5 7 5 6 4 3 3 2 1 2 2 3 4 4 5 5 4 3 7 8 10 7 8 10 10 12 13 13 12 10 11 13 4 4 3 3 6 10 10 11 13 15 14 14 15 17 21 14 18 20 17 16 16
Wind_Direction
273 273 267 269 269 265 270 275 273 274 291 305 313 322 326 334 337 326 328 31 325 307 327 349 3 335 317 274 286 42 253 201 267 250 262 239 248 236 236 229 218 218 209 219 246 253 246 133 159 219 51 40 31 18
274 277 265 266 268 268 269 262 264 269 271 292 307 317 322 327 329 330 292 358 334 265 325 322 299 294 285 334 327 309 4 12 14 287 293 306 286 241 196 270 163 213 354 9 359 51 47 43 88 51 3 5 356 330
266 267 264 260 262 264 264 263 265 267 263 279 296 309 316 322 320 314 312 312 301 252 254 221 156 96 251 258 271 290 93 347 95 336 324 317 306 343 268 246 112 300 1 284 304 115 66 42 57 26 17 360 338 316
266 261 261 253 257 253 254 259 261 264 269 264 282 301 311 316 313 301 302 353 290 292 275 116 149 236 352 269 251 244 325 307 292 290 290 290 282 22 280 334 303 40 306 267 259 212 217 92 38 2 2 353 333 319
260 260 260 263 251 249 250 250 250 260 262 263 268 291 303 311 305 281 271 305 302 311 328 359 153 111 107 132 210 210 256 283 270 238 228 239 286 347 263 305 282 278 291 271 5 37 337 57 359 4 7 353 334 322
252 253 252 249 248 240 248 257 254 250 255 261 252 279 300 310 297 274 205 163 285 341 278 250 90 175 169 186 211 235 249 243 257 278 250 283 92 282 276 242 247 45 54 24 41 9 353 321 312 25 349 341 338 324
241 246 241 236 236 238 243 244 255 235 237 239 236 271 295 310 278 292 357 358 347 307 254 262 184 137 240 213 179 198 192 259 273 238 233 266 196 223 263 264 286 26 12 298 301 329 305 318 320 329 312 312 312 304
240 241 235 232 231 233 240 237 241 229 227 214 223 258 286 289 271 252 188 203 281 259 262 270 122 183 196 206 165 184 190 201 193 270 240 252 240 207 269 271 281 321 333 298 283 288 308 317 310 304 309 306 299 295
247 227 232 236 233 217 235 246 244 233 209 189 220 275 263 228 240 61 113 171 227 299 302 265 250 117 177 244 20 180 273 209 124 234 232 230 227 225 240 249 272 268 268 315 316 315 306 292 292 291 293 290 285 280
247 224 224 229 211 206 227 200 230 216 186 179 215 211 216 46 134 177 178 203 198 188 225 260 19 151 263 174 157 272 195 270 228 191 227 241 251 258 232 221 240 275 300 333 297 295 321 310 303 305 300 300 293 288
206 211 195 187 192 196 183 188 196 173 170 201 215 199 109 111 205 194 286 203 181 235 202 240 318 320 130 293 68 322 357 350 253 143 255 260 227 53 79 46 30 341 318 303 305 307 304 308 309 306 299 294 287 281
187 177 184 170 171 185 184 196 174 194 182 144 334 157 174 192 176 241 198 216 235 235 134 221 165 255 100 295 273 146 272 216 258 52 266 253 80 69 58 36 350 316 312 309 305 301 296 292 294 293 294 288 279 293
181 180 187 174 179 173 185 165 180 199 196 194 231 190 169 136 186 197 183 204 208 160 142 189 174 197 159 239 246 260 224 233 19 235 244 0 59 40 7 339 326 318 305 295 294 294 296 292 287 277 279 275 270 260
171 163 164 156 164 167 159 155 167 158 55 247 166 167 217 166 213 215 218 105 76 333 70 61 223 17 102 224 312 238 303 316 270 256 191 50 9 345 333 318 305 300 301 298 291 287 291 284 278 272 258 254 250 237
117 120 135 156 150 149 145 143 172 188 175 111 257 221 199 214 234 223 19 73 105 30 148 182 227 124 239 155 228 4 227 248 254 1 11 350 337 337 326 313 311 297 294 296 293 283 283 274 275 261 250 205 171 122
109 118 127 135 141 137 139 157 175 196 130 272 240 253 226 176 157 161 171 145 185 144 198 180 239 275 239 60 275 253 249 330 44 353 341 339 323 302 304 301 300 300 311 302 284 271 265 255 225 153 121 104 130 132
113 76 127 125 130 141 164 173 194 179 242 259 233 228 261 158 247 144 111 143 212 175 219 221 199 173 141 200 231 266 20 15 5 339 311 307 325 334 340 315 324 329 333 333 301 294 238 62 268 160 132 122 162 142
101 112 121 129 143 144 194 242 262 208 240 234 249 258 149 45 8 310 115 192 242 131 252 352 333 236 183 272 26 17 15 351 321 287 288 299 348 348 338 356 332 338 41 331 333 355 38 86 117 133 136 135 176 163
117 126 150 169 357 259 189 174 217 252 235 215 219 186 137 142 136 261 199 194 118 209 190 133 252 235 294 25 354 335 327 303 291 281 287 289 253 252 277 278 327 314 271 219 352 19 50 41 40 195 226 196 58 50
109 139 176 204 336 264 224 180 221 233 269 309 303 198 191 181 216 189 196 209 203 262 282 245 226 129 300 327 236 266 279 290 271 270 248 272 254 221 291 211 258 261 275 7 10 76 9 356 4 18 15 27 202 192
182 139 188 255 261 236 278 274 250 9 343 319 3 280 282 254 225 218 213 210 227 230 251 272 314 251 208 263 283 278 278 269 255 265 317 297 333 352 339 320 328 7 337 352 328 3 219 336 72 137 187 322 347 31
91 162 227 257 291 350 290 29 331 13 353 22 322 264 246 230 225 269 337 320 243 244 266 265 273 305 289 273 275 275 270 256 247 252 290 292 262 302 328 322 337 330 344 330 315 308 325 290 17 337 329 133 229 211
141 122 196 224 211 206 270 309 219 202 203 199 178 157 292 341 32 20 24 284 267 239 246 259 260 261 264 281 284 279 273 267 264 261 333 290 36 300 292 295 272 270 286 331 331 315 319 46 244 243 281 265 255 250
170 211 196 203 206 234 208 199 198 225 194 159 139 172 191 180 99 177 236 207 232 231 202 207 212 221 210 236 214 237 253 280 345 220 248 260 251 217 247 285 302 324 2 315 302 298 306 313 322 262 260 262 264 267
229 202 218 220 181 196 204 167 187 187 203 209 204 132 140 159 173 99 57 301 311 117 154 202 232 280 7 47 158 203 267 295 312 324 229 306 325 319 314 322 322 300 130 318 327 323 312 303 292 286 287 286 290 296
260 157 251 345 345 8 68 119 147 119 141 103 92 111 199 89 76 62 122 196 119 66 54 28 117 148 289 313 20 17 8 4 343 336 353 337 314 313 322 319 312 311 339 337 307 305 306 303 306 307 297 288 240 246
33 36 45 181 240 207 52 52 103 109 58 54 103 110 69 74 77 60 56 51 54 62 38 356 9 9 14 20 9 11 2 331 31 325 297 314 304 290 296 322 322 324 337 321 311 304 299 296 293 293 293 295 296 295
4 328 56 50 51 61 67 67 52 51 50 42 71 60 64 91 82 67 54 33 43 54 53 71 86 95 81 8 335 338 340 324 333 358 346 329 330 336 355 330 337 150 285 285 278 280 286 293 296 293 292 292 289 287
66 69 68 63 75 67 59 57 60 61 70 82 85 87 86 93 103 80 23 12 13 25 25 16 13 6 9 8 7 4 352 345 360 340 335 328 331 338 337 329 328 324 323 319 317 243 274 293 303 309 311 312 311 313
73 73 73 67 67 67 64 62 70 77 77 94 94 105 95 79 69 25 53 30 13 12 12 3 10 21 0 352 354 346 335 358 358 347 333 333 334 328 332 336 331 319 317 316 316 316 317 291 280 261 262 262 266 268
71 62 55 71 74 55 45 46 66 85 103 106 97 101 109 110 95 62 48 28 354 13 24 356 2 4 359 351 345 336 341 351 342 335 359 329 323 333 340 331 315 322 328 320 318 314 311 306 302 297 296 299 298 279
48 37 71 76 91 98 102 35 54 28 36 63 98 107 109 122 96 53 29 8 8 359 13 353 356 354 353 349 336 342 350 327 327 347 340 331 330 334 329 316 315 336 329 330 326 320 325 319 345 343 335 343 346 343
346 13 348 28 17 359 350 86 306 41 349 13 48 46 40 65 70 57 359 20 13 345 4 356 351 342 347 340 345 333 333 339 343 314 170 228 303 323 308 322 337 331 325 333 326 331 327 328 341 3 355 352 348 348